Regional Weather Roundup
Issued by NWS

Home | Current Version | Previous Version | Text Only | Print | Product List | Glossary Off
Versions: 1 2 3 4 5 6 7 8 9 10 11 12 13 14 15 16 17 18 19 20 21 22 23 24 25 26 27 28 29 30 31 32 33 34 35 36 37 38 39 40 41 42 43 44 45 46 47 48 49 50

000
ASUS43 KIND 152309
RWRIN

WEATHER ROUNDUP FOR INDIANA
NATIONAL WEATHER SERVICE INDIANAPOLIS IN
600 PM EST MON JAN 15 2018

NOTE: "FAIR" INDICATES FEW OR NO CLOUDS BELOW 12,000 FEET WITH NO
SIGNIFICANT WEATHER AND/OR OBSTRUCTIONS TO VISIBILITY.

* - STATION DOES NOT REPORT WEATHER SUCH AS PRECIPITATION OR FOG.

+ - STATION NOT QUALITY CONTROLLED BY THE NATIONAL WEATHER SERVICE.
    USE DATA WITH CAUTION...ESPECIALLY DEWPOINT AND RELATIVE
    HUMIDITY OBSERVATIONS.

INZ001>003-010>013-019-020-160000-
NORTHWEST INDIANA

CITY           SKY/WX    TMP DP  RH WIND       PRES   REMARKS
GARY /AIRPORT/ FLURRIES  16   9  73 W16       30.27R WCI   0
KNOX *+        CLOUDY    14  10  85 W17       30.25R WCI  -3
LA PORTE +     FLURRIES  15  10  81 W13       30.24R WCI   1
MICHIGAN CITY+ FLURRIES  18  12  79 W8        30.24R WCI   7
MONTICELLO +   FAIR      10   5  79 W9        30.30R WCI  -2
RENSSELAER +   LGT SNOW  14   7  73 W14       30.29R WCI  -1
VALPARAISO     CLOUDY    15   8  73 W13       30.25R WCI   1

$$

LMZ046-743>745-160000-
SOUTHERN LAKE MICHIGAN

STATION/POSITION TIME  TEMP    WIND        PRES    WAVE
                       AIR SEA DIR/SP/G            HT
                 (UTC) (F)     (DEG/KT/KT) (MB)    (FT)
BURNS HARBOR     2240   16     230/ 15/ 17 1024.7R
MICHIGAN CITY    2240          220/ 22/ 25   N/A

$$

INZ004-005-014>016-021>024-160000-
NORTH CENTRAL INDIANA

CITY           SKY/WX    TMP DP  RH WIND       PRES   REMARKS
ELKHART        LGT SNOW  23  19  86 S5        30.20R WCI  17
GOSHEN         LGT SNOW  23  20  88 S14       30.20R FOG     WCI  11
LOGANSPORT +   MOCLDY    12   7  79 W18       30.29R WCI  -5
PERU/GRISSOM   FLURRIES  13  10  87 W18       30.26R WCI  -4
ROCHESTER +    CLOUDY    18  12  79 SW9       30.27R WCI   6
SOUTH BEND     LGT SNOW  17  14  88 SW13      30.21R VSB 1   WCI   4
WARSAW +       CLOUDY    19  18  93 SW10      30.22R WCI   8

$$

INZ006>009-017-018-025>027-160000-
NORTHEAST INDIANA

CITY           SKY/WX    TMP DP  RH WIND       PRES   REMARKS
AUBURN +       LGT SNOW  23  21  93 S3        30.22R
FORT WAYNE     LGT SNOW  24  21  88 SW9       30.23R FOG     WCI  14
HUNTINGTON +   CLOUDY    23  20  88 SW9       30.23R WCI  13
KENDALLVILLE + LGT SNOW  22  20  91 S6        30.20R WCI  15

$$

INZ028-029-035-036-043>045-051>053-160000-
WEST CENTRAL INDIANA

CITY           SKY/WX    TMP DP  RH WIND       PRES   REMARKS
CRAWFORDSVL +  LGT SNOW  10   8  88 MISG        N/A
GREENCASTLE +  LGT SNOW  14   7  73 W8        30.34R WCI   3
LAFAYETTE      CLOUDY    12   7  80 W13       30.32R WCI  -3
TERRE HAUTE    MOCLDY    13   5  70 W10       30.38R WCI   0

$$

INZ030>032-037>040-046>048-054>057-064-065-160000-
CENTRAL INDIANA

CITY           SKY/WX    TMP DP  RH WIND       PRES   REMARKS
COLUMBUS       CLOUDY    27  23  86 SW7       30.30R WCI  19
FISHERS *+     CLOUDY    19  19 100 W13G18    30.29R WCI   7
FRANKFORT +    MOCLDY    14   8  76 W13       30.32R WCI   0
INDIANAPOLIS   CLOUDY    18  11  74 W16       30.31R WCI   3
-EAGLE CREEK   CLOUDY    17  10  74 W14G23    30.30R WCI   3
MARION +       LGT SNOW  20  17  87 W16       30.26R WCI   5
MT COMFORT *+  CLOUDY    23  18  80 W17       30.27R WCI   9
SHELBYVILLE    FLURRIES  26  21  81 W17G23    30.28R WCI  13
ZIONSVILLE +   FLURRIES  16  13  86 W14G20    30.29R WCI   2

$$

INZ033-034-041-042-049-050-058-059-160000-
EAST CENTRAL INDIANA

CITY           SKY/WX    TMP DP  RH WIND       PRES   REMARKS
MUNCIE         CLOUDY    26  21  81 W8        30.24R HAZE    WCI  18
RICHMOND +     CLOUDY    23  23 100 W9        30.26R WCI  13

$$

INZ060-061-067>069-081>083-085>088-160000-
SOUTHWEST INDIANA

CITY           SKY/WX    TMP DP  RH WIND       PRES   REMARKS
EVANSVILLE     CLOUDY    23   8  52 NW10      30.40R WCI  12
HUNTINGBURG +  CLOUDY    24  19  81 W13       30.37R WCI  12
WASHINGTON +   MOCLDY    18   8  65 W13       30.41R WCI   4

$$

INZ062-063-066-070>080-084-089>092-160000-
SOUTH CENTRAL AND SOUTHEAST INDIANA

CITY           SKY/WX    TMP DP  RH WIND       PRES   REMARKS
BATESVILLE *+    N/A    N/A N/A N/A MISG        N/A
BEDFORD +      CLOUDY    25  21  86 W15G21    30.32R WCI  12
BLOOMINGTON    CLOUDY    19  10  68 W14G21    30.32R WCI   6
MADISON *+     CLOUDY    28  27  93 SW3       30.32R
NORTH VERNON + CLOUDY    25  23  93 W8        30.30R WCI  16
SEYMOUR +      CLOUDY    28  23  80 SW6       30.32R WCI  22

$$




USA.gov is the U.S. government's official web portal to all federal, state and local government web resources and services.